Time,TemperatureF,DewpointF,PressureIn,WindDirection,WindDirectionDegrees,WindSpeedMPH,WindSpeedGustMPH,Humidity,HourlyPrecipIn,Conditions,Clouds,dailyrainin,SoftwareType,DateUTC
2013-03-09 00:00:00,38.7,36.0,29.77,ENE,67,12.0,20.0,90,0.00,RA,,0.00,WeatherDisplay:10.37,2013-03-09 00:00:00,
2013-03-09 00:15:00,38.7,36.0,29.77,East,91,12.0,15.0,90,0.00,CLR,,0.00,WeatherDisplay:10.37,2013-03-09 00:15:00,
2013-03-09 00:30:00,38.7,36.0,29.77,NE,45,9.0,12.0,90,0.00,CLR,,0.00,WeatherDisplay:10.37,2013-03-09 00:30:00,
2013-03-09 00:45:00,38.5,35.8,29.77,ENE,69,8.0,13.0,90,0.00,CLR,,0.00,WeatherDisplay:10.37,2013-03-09 00:45:00,
2013-03-09 01:00:00,38.5,36.1,29.77,East,86,7.0,12.0,91,0.00,CLR,,0.00,WeatherDisplay:10.37,2013-03-09 01:00:00,
2013-03-09 01:15:00,38.5,36.1,29.77,East,79,7.0,14.0,91,0.00,CLR,,0.00,WeatherDisplay:10.37,2013-03-09 01:15:00,
2013-03-09 01:30:00,38.5,35.8,29.77,ENE,70,6.0,17.0,90,0.00,CLR,,0.00,WeatherDisplay:10.37,2013-03-09 01:30:00,
2013-03-09 01:45:00,38.5,35.8,29.80,NNE,27,8.0,12.0,90,0.00,CLR,,0.00,WeatherDisplay:10.37,2013-03-09 01:45:00,
2013-03-09 02:00:00,38.5,35.5,29.77,NE,56,14.0,15.0,89,0.00,CLR,,0.00,WeatherDisplay:10.37,2013-03-09 02:00:00,
2013-03-09 02:15:00,38.5,35.5,29.77,NE,47,15.0,15.0,89,0.00,CLR,,0.00,WeatherDisplay:10.37,2013-03-09 02:15:00,
2013-03-09 02:30:00,38.5,35.5,29.77,NE,53,8.0,16.0,89,0.00,CLR,,0.00,WeatherDisplay:10.37,2013-03-09 02:30:00,
2013-03-09 02:45:00,38.5,35.5,29.77,NE,45,13.0,14.0,89,0.00,CLR,,0.00,WeatherDisplay:10.37,2013-03-09 02:45:00,
2013-03-09 03:00:00,38.5,35.5,29.77,ENE,67,10.0,15.0,89,0.00,CLR,,0.00,WeatherDisplay:10.37,2013-03-09 03:00:00,
2013-03-09 03:15:00,38.5,35.8,29.77,ENE,57,9.0,13.0,90,0.00,CLR,,0.00,WeatherDisplay:10.37,2013-03-09 03:15:00,
2013-03-09 03:30:00,38.5,35.8,29.77,NNE,30,16.0,25.0,90,0.00,CLR,,0.00,WeatherDisplay:10.37,2013-03-09 03:30:00,
2013-03-09 03:45:00,38.5,35.8,29.77,NE,43,17.0,19.0,90,0.00,CLR,,0.00,WeatherDisplay:10.37,2013-03-09 03:45:00,
2013-03-09 04:00:00,38.3,35.6,29.77,NE,56,18.0,18.0,90,0.00,CLR,,0.00,WeatherDisplay:10.37,2013-03-09 04:00:00,
2013-03-09 04:15:00,38.3,35.6,29.74,ENE,59,15.0,18.0,90,0.00,CLR,,0.00,WeatherDisplay:10.37,2013-03-09 04:15:00,
2013-03-09 04:30:00,38.3,35.6,29.77,NE,38,9.0,17.0,90,0.00,CLR,,0.00,WeatherDisplay:10.37,2013-03-09 04:30:00,
2013-03-09 04:45:00,38.3,35.6,29.77,NNE,33,8.0,17.0,90,0.00,CLR,,0.00,WeatherDisplay:10.37,2013-03-09 04:45:00,
2013-03-09 05:00:00,38.3,35.6,29.77,East,95,18.0,18.0,90,0.00,CLR,,0.00,WeatherDisplay:10.37,2013-03-09 05:00:00,
2013-03-09 05:15:00,38.3,35.3,29.77,East,89,8.0,18.0,89,0.00,CLR,,0.00,WeatherDisplay:10.37,2013-03-09 05:15:00,
2013-03-09 05:30:00,38.3,35.1,29.77,ENE,78,12.0,12.0,88,0.00,CLR,,0.00,WeatherDisplay:10.37,2013-03-09 05:30:00,
2013-03-09 05:45:00,38.1,34.9,29.77,NE,49,6.0,15.0,88,0.00,CLR,,0.00,WeatherDisplay:10.37,2013-03-09 05:45:00,
2013-03-09 06:00:00,38.1,34.9,29.77,East,80,5.0,16.0,88,0.00,CLR,,0.00,WeatherDisplay:10.37,2013-03-09 06:00:00,
2013-03-09 06:15:00,37.9,34.7,29.77,East,81,14.0,15.0,88,0.00,CLR,,0.00,WeatherDisplay:10.37,2013-03-09 06:15:00,
2013-03-09 06:30:00,37.9,34.7,29.77,ENE,74,10.0,15.0,88,0.00,CLR,,0.00,WeatherDisplay:10.37,2013-03-09 06:30:00,
2013-03-09 06:45:00,37.6,34.6,29.77,ENE,66,9.0,14.0,89,0.00,CLR,,0.00,WeatherDisplay:10.37,2013-03-09 06:45:00,
2013-03-09 07:00:00,37.6,34.9,29.80,ENE,67,6.0,13.0,90,0.00,CLR,,0.00,WeatherDisplay:10.37,2013-03-09 07:00:00,
2013-03-09 07:15:00,37.6,35.2,29.80,ENE,67,10.0,12.0,91,0.00,CLR,,0.00,WeatherDisplay:10.37,2013-03-09 07:15:00,
2013-03-09 07:30:00,37.6,35.2,29.80,NE,48,15.0,15.0,91,0.00,CLR,,0.00,WeatherDisplay:10.37,2013-03-09 07:30:00,
2013-03-09 07:45:00,37.6,35.5,29.80,NE,38,7.0,15.0,92,0.00,CLR,,0.00,WeatherDisplay:10.37,2013-03-09 07:45:00,
2013-03-09 08:00:00,37.6,35.5,29.80,ENE,63,13.0,13.0,92,0.00,CLR,,0.00,WeatherDisplay:10.37,2013-03-09 08:00:00,
2013-03-09 08:15:00,37.8,35.6,29.83,NNE,29,9.0,17.0,92,0.00,CLR,,0.00,WeatherDisplay:10.37,2013-03-09 08:15:00,
2013-03-09 08:30:00,37.9,35.8,29.83,ENE,65,5.0,15.0,92,0.00,CLR,,0.00,WeatherDisplay:10.37,2013-03-09 08:30:00,
2013-03-09 08:45:00,38.1,36.0,29.83,ENE,63,15.0,15.0,92,0.00,CLR,,0.00,WeatherDisplay:10.37,2013-03-09 08:45:00,
2013-03-09 09:00:00,38.3,35.9,29.83,ENE,63,10.0,15.0,91,0.00,CLR,,0.00,WeatherDisplay:10.37,2013-03-09 09:00:00,
2013-03-09 09:15:00,38.5,36.1,29.83,ENE,61,9.0,14.0,91,0.00,CLR,,0.00,WeatherDisplay:10.37,2013-03-09 09:15:00,
2013-03-09 09:30:00,38.7,36.3,29.83,ENE,71,9.0,15.0,91,0.00,CLR,,0.00,WeatherDisplay:10.37,2013-03-09 09:30:00,
2013-03-09 09:45:00,38.7,36.0,29.83,NE,37,13.0,13.0,90,0.00,CLR,,0.00,WeatherDisplay:10.37,2013-03-09 09:45:00,
2013-03-09 10:00:00,38.7,35.7,29.85,NE,38,10.0,14.0,89,0.00,CLR,,0.00,WeatherDisplay:10.37,2013-03-09 10:00:00,
2013-03-09 10:15:00,38.7,35.7,29.83,ENE,64,6.0,16.0,89,0.00,CLR,,0.00,WeatherDisplay:10.37,2013-03-09 10:15:00,
2013-03-09 10:30:00,38.7,36.0,29.85,ENE,58,6.0,13.0,90,0.00,CLR,,0.00,WeatherDisplay:10.37,2013-03-09 10:30:00,
2013-03-09 10:45:00,38.8,36.4,29.85,ENE,70,10.0,14.0,91,0.00,CLR,,0.00,WeatherDisplay:10.37,2013-03-09 10:45:00,
2013-03-09 11:00:00,39.0,36.9,29.85,NE,55,7.0,13.0,92,0.00,CLR,,0.00,WeatherDisplay:10.37,2013-03-09 11:00:00,
2013-03-09 11:15:00,39.2,37.1,29.85,ENE,68,10.0,17.0,92,0.00,CLR,,0.00,WeatherDisplay:10.37,2013-03-09 11:15:00,
2013-03-09 11:30:00,39.4,37.2,29.85,ENE,59,17.0,18.0,92,0.00,CLR,,0.00,WeatherDisplay:10.37,2013-03-09 11:30:00,
2013-03-09 11:45:00,39.3,36.9,29.85,East,80,13.0,18.0,91,0.00,CLR,,0.00,WeatherDisplay:10.37,2013-03-09 11:45:00,
2013-03-09 12:00:00,39.0,36.9,29.85,ENE,65,17.0,17.0,92,0.00,CLR,,0.00,WeatherDisplay:10.37,2013-03-09 12:00:00,
2013-03-09 12:15:00,38.8,37.0,29.85,ENE,62,9.0,17.0,93,0.00,CLR,,0.00,WeatherDisplay:10.37,2013-03-09 12:15:00,
2013-03-09 12:30:00,38.8,37.0,29.85,NE,36,10.0,12.0,93,0.00,CLR,,0.00,WeatherDisplay:10.37,2013-03-09 12:30:00,
2013-03-09 12:45:00,38.7,37.1,29.85,East,83,7.0,13.0,94,0.00,CLR,,0.00,WeatherDisplay:10.37,2013-03-09 12:45:00,
2013-03-09 13:00:00,38.7,37.1,29.85,ENE,69,7.0,13.0,94,0.04,RA,,0.04,WeatherDisplay:10.37,2013-03-09 13:00:00,
2013-03-09 13:15:00,38.8,37.5,29.85,ENE,64,13.0,13.0,95,0.00,CLR,,0.04,WeatherDisplay:10.37,2013-03-09 13:15:00,
2013-03-09 13:30:00,38.8,37.3,29.85,NE,52,8.0,13.0,94,0.00,CLR,,0.04,WeatherDisplay:10.37,2013-03-09 13:30:00,
2013-03-09 13:45:00,38.7,37.1,29.85,ENE,75,7.0,7.0,94,0.00,CLR,,0.04,WeatherDisplay:10.37,2013-03-09 13:45:00,
2013-03-09 14:00:00,38.7,36.8,29.85,ENE,69,13.0,20.0,93,0.00,CLR,,0.04,WeatherDisplay:10.37,2013-03-09 14:00:00,
2013-03-09 14:15:00,38.5,36.4,29.85,East,95,6.0,15.0,92,0.00,CLR,,0.04,WeatherDisplay:10.37,2013-03-09 14:15:00,
2013-03-09 14:30:00,38.5,36.1,29.85,ENE,75,9.0,17.0,91,0.00,CLR,,0.04,WeatherDisplay:10.37,2013-03-09 14:30:00,
2013-03-09 14:45:00,38.5,35.8,29.85,NE,50,7.0,14.0,90,0.00,CLR,,0.04,WeatherDisplay:10.37,2013-03-09 14:45:00,
2013-03-09 15:00:00,38.5,35.2,29.85,NE,45,10.0,13.0,88,0.00,CLR,,0.04,WeatherDisplay:10.37,2013-03-09 15:00:00,
2013-03-09 15:15:00,38.5,34.7,29.85,ENE,58,10.0,23.0,86,0.00,CLR,,0.04,WeatherDisplay:10.37,2013-03-09 15:15:00,
2013-03-09 15:30:00,38.5,34.1,29.88,ENE,66,9.0,15.0,84,0.00,CLR,,0.04,WeatherDisplay:10.37,2013-03-09 15:30:00,
2013-03-09 15:45:00,38.7,33.9,29.88,ENE,73,15.0,15.0,83,0.00,CLR,,0.04,WeatherDisplay:10.37,2013-03-09 15:45:00,
2013-03-09 16:00:00,38.5,33.5,29.88,East,90,13.0,16.0,82,0.00,CLR,,0.04,WeatherDisplay:10.37,2013-03-09 16:00:00,
2013-03-09 16:15:00,38.5,32.8,29.88,ENE,76,13.0,15.0,80,0.00,CLR,,0.04,WeatherDisplay:10.37,2013-03-09 16:15:00,
2013-03-09 16:30:00,38.5,31.9,29.88,ENE,71,10.0,13.0,77,0.00,CLR,,0.04,WeatherDisplay:10.37,2013-03-09 16:30:00,
2013-03-09 16:45:00,38.5,31.2,29.88,East,82,6.0,21.0,75,0.00,CLR,,0.04,WeatherDisplay:10.37,2013-03-09 16:45:00,
2013-03-09 17:00:00,38.5,30.9,29.91,NE,54,7.0,13.0,74,0.00,CLR,,0.04,WeatherDisplay:10.37,2013-03-09 17:00:00,
2013-03-09 17:15:00,38.5,30.2,29.91,East,84,9.0,10.0,72,0.00,CLR,,0.04,WeatherDisplay:10.37,2013-03-09 17:15:00,
2013-03-09 17:30:00,38.3,30.1,29.91,ENE,64,5.0,12.0,72,0.00,CLR,,0.04,WeatherDisplay:10.37,2013-03-09 17:30:00,
2013-03-09 17:45:00,38.1,29.2,29.91,ENE,58,3.0,14.0,70,0.00,CLR,,0.04,WeatherDisplay:10.37,2013-03-09 17:45:00,
2013-03-09 18:00:00,38.1,28.5,29.91,ENE,67,17.0,21.0,68,0.00,CLR,,0.04,WeatherDisplay:10.37,2013-03-09 18:00:00,
2013-03-09 18:15:00,37.9,28.0,29.91,NE,42,15.0,19.0,67,0.00,CLR,,0.04,WeatherDisplay:10.37,2013-03-09 18:15:00,
2013-03-09 18:30:00,37.8,28.1,29.91,East,83,13.0,18.0,68,0.00,CLR,,0.04,WeatherDisplay:10.37,2013-03-09 18:30:00,
2013-03-09 18:45:00,37.6,28.0,29.91,ENE,63,5.0,20.0,68,0.00,CLR,,0.04,WeatherDisplay:10.37,2013-03-09 18:45:00,
2013-03-09 19:00:00,37.4,28.5,29.94,ENE,64,10.0,15.0,70,0.00,CLR,,0.04,WeatherDisplay:10.37,2013-03-09 19:00:00,
2013-03-09 19:15:00,37.4,29.2,29.94,NE,56,2.0,14.0,72,0.00,CLR,,0.04,WeatherDisplay:10.37,2013-03-09 19:15:00,
2013-03-09 19:30:00,37.2,29.0,29.94,NE,52,10.0,13.0,72,0.00,CLR,,0.04,WeatherDisplay:10.37,2013-03-09 19:30:00,
2013-03-09 19:45:00,37.2,28.7,29.94,ENE,61,10.0,14.0,71,0.00,CLR,,0.04,WeatherDisplay:10.37,2013-03-09 19:45:00,
2013-03-09 20:00:00,37.0,28.5,29.94,NNE,15,13.0,14.0,71,0.00,CLR,,0.04,WeatherDisplay:10.37,2013-03-09 20:00:00,
2013-03-09 20:15:00,37.0,28.2,29.94,ESE,110,5.0,15.0,70,0.00,CLR,,0.04,WeatherDisplay:10.37,2013-03-09 20:15:00,
2013-03-09 20:30:00,36.9,28.0,29.94,NE,42,7.0,23.0,70,0.00,CLR,,0.04,WeatherDisplay:10.37,2013-03-09 20:30:00,
2013-03-09 20:45:00,36.9,27.3,29.94,ENE,64,12.0,16.0,68,0.00,CLR,,0.04,WeatherDisplay:10.37,2013-03-09 20:45:00,
2013-03-09 21:00:00,36.7,27.1,29.94,NE,50,16.0,17.0,68,0.00,CLR,,0.04,WeatherDisplay:10.37,2013-03-09 21:00:00,
2013-03-09 21:15:00,36.7,27.1,29.94,NE,52,13.0,17.0,68,0.00,CLR,,0.04,WeatherDisplay:10.37,2013-03-09 21:15:00,
2013-03-09 21:30:00,36.5,27.3,29.97,NNE,32,10.0,15.0,69,0.00,CLR,,0.04,WeatherDisplay:10.37,2013-03-09 21:30:00,
2013-03-09 21:45:00,36.5,27.6,29.97,East,80,10.0,14.0,70,0.00,CLR,,0.04,WeatherDisplay:10.37,2013-03-09 21:45:00,
2013-03-09 22:00:00,36.3,27.8,29.97,ENE,57,3.0,20.0,71,0.00,CLR,,0.04,WeatherDisplay:10.37,2013-03-09 22:00:00,
2013-03-09 22:15:00,36.1,27.3,29.97,East,90,10.0,10.0,70,0.00,CLR,,0.04,WeatherDisplay:10.37,2013-03-09 22:15:00,
2013-03-09 22:30:00,36.1,26.9,29.97,ENE,63,17.0,17.0,69,0.00,CLR,,0.04,WeatherDisplay:10.37,2013-03-09 22:30:00,
2013-03-09 22:45:00,36.0,26.4,29.97,ENE,64,9.0,17.0,68,0.00,CLR,,0.04,WeatherDisplay:10.37,2013-03-09 22:45:00,
2013-03-09 23:00:00,36.0,26.1,29.97,ENE,68,3.0,9.0,67,0.00,CLR,,0.04,WeatherDisplay:10.37,2013-03-09 23:00:00,
2013-03-09 23:15:00,36.0,26.1,29.97,ENE,74,17.0,17.0,67,0.00,CLR,,0.04,WeatherDisplay:10.37,2013-03-09 23:15:00,
2013-03-09 23:29:00,36.0,25.7,29.94,East,79,8.0,22.0,66,0.00,CLR,,0.04,WeatherDisplay:10.37,2013-03-09 23:29:00,
2013-03-09 23:44:00,35.8,25.2,29.97,NE,55,14.0,19.0,65,0.00,CLR,,0.04,WeatherDisplay:10.37,2013-03-09 23:44:00,